<?xml version="1.0"?>
<gpx xmlns="http://www.topografix.com/GPX/1/1" xmlns:xsi="http://www.w3.org/2001/XMLSchema-instance" version="1.1" creator="GPX RubyGem 1.0.0 -- http://dougfales.github.io/gpx/" xsi:schemaLocation="http://www.topografix.com/GPX/1/1 http://www.topografix.com/GPX/1/1/gpx.xsd">
  <metadata>
    <name/>
    <time>2026-05-08T00:31:17+00:00</time>
    <bound minlat="90.0" minlon="180.0" maxlat="-90.0" maxlon="-180.0"/>
  </metadata>
  <trk>
    <name/>
    <trkseg>
      <trkpt lat="45.910212" lon="7.305106">
        <time>1970-01-01T00:00:00+00:00</time>
        <ele>2963.0</ele>
      </trkpt>
      <trkpt lat="45.913328" lon="7.30408">
        <time>1970-01-01T00:00:00+00:00</time>
        <ele>3066.0</ele>
      </trkpt>
      <trkpt lat="45.914369" lon="7.301507">
        <time>1970-01-01T00:00:00+00:00</time>
        <ele>3154.0</ele>
      </trkpt>
      <trkpt lat="45.917043" lon="7.300665">
        <time>1970-01-01T00:00:00+00:00</time>
        <ele>3277.0</ele>
      </trkpt>
      <trkpt lat="45.917493" lon="7.300859">
        <time>1970-01-01T00:00:00+00:00</time>
        <ele>3301.0</ele>
      </trkpt>
      <trkpt lat="45.920111" lon="7.303538">
        <time>1970-01-01T00:00:00+00:00</time>
        <ele>3271.0</ele>
      </trkpt>
      <trkpt lat="45.929019" lon="7.297092">
        <time>1970-01-01T00:00:00+00:00</time>
        <ele>3485.0</ele>
      </trkpt>
      <trkpt lat="45.929094" lon="7.296575">
        <time>1970-01-01T00:00:00+00:00</time>
        <ele>3498.0</ele>
      </trkpt>
      <trkpt lat="45.930949" lon="7.288819">
        <time>1970-01-01T00:00:00+00:00</time>
        <ele>3506.0</ele>
      </trkpt>
      <trkpt lat="45.931933" lon="7.288629">
        <time>1970-01-01T00:00:00+00:00</time>
        <ele>3555.0</ele>
      </trkpt>
      <trkpt lat="45.932736" lon="7.287464">
        <time>1970-01-01T00:00:00+00:00</time>
        <ele>3616.0</ele>
      </trkpt>
      <trkpt lat="45.934941" lon="7.286387">
        <time>1970-01-01T00:00:00+00:00</time>
        <ele>3722.0</ele>
      </trkpt>
      <trkpt lat="45.937994" lon="7.290291">
        <time>1970-01-01T00:00:00+00:00</time>
        <ele>4136.0</ele>
      </trkpt>
      <trkpt lat="45.937177" lon="7.292725">
        <time>1970-01-01T00:00:00+00:00</time>
        <ele>4120.0</ele>
      </trkpt>
      <trkpt lat="45.93753" lon="7.299153">
        <time>1970-01-01T00:00:00+00:00</time>
        <ele>4282.0</ele>
      </trkpt>
      <trkpt lat="45.940147" lon="7.300555">
        <time>1970-01-01T00:00:00+00:00</time>
        <ele>4220.0</ele>
      </trkpt>
      <trkpt lat="45.940777" lon="7.301138">
        <time>1970-01-01T00:00:00+00:00</time>
        <ele>4193.0</ele>
      </trkpt>
      <trkpt lat="45.940507" lon="7.300879">
        <time>1970-01-01T00:00:00+00:00</time>
        <ele>4202.0</ele>
      </trkpt>
      <trkpt lat="45.941138" lon="7.301282">
        <time>1970-01-01T00:00:00+00:00</time>
        <ele>4179.0</ele>
      </trkpt>
      <trkpt lat="45.941926" lon="7.301193">
        <time>1970-01-01T00:00:00+00:00</time>
        <ele>4173.0</ele>
      </trkpt>
      <trkpt lat="45.942336" lon="7.301655">
        <time>1970-01-01T00:00:00+00:00</time>
        <ele>4119.0</ele>
      </trkpt>
      <trkpt lat="45.942801" lon="7.302604">
        <time>1970-01-01T00:00:00+00:00</time>
        <ele>4081.0</ele>
      </trkpt>
      <trkpt lat="45.943386" lon="7.30448">
        <time>1970-01-01T00:00:00+00:00</time>
        <ele>4096.0</ele>
      </trkpt>
      <trkpt lat="45.942921" lon="7.311078">
        <time>1970-01-01T00:00:00+00:00</time>
        <ele>4116.0</ele>
      </trkpt>
      <trkpt lat="45.945875" lon="7.304729">
        <time>1970-01-01T00:00:00+00:00</time>
        <ele>3968.0</ele>
      </trkpt>
      <trkpt lat="45.944862" lon="7.299186">
        <time>1970-01-01T00:00:00+00:00</time>
        <ele>3880.0</ele>
      </trkpt>
      <trkpt lat="45.948694" lon="7.289467">
        <time>1970-01-01T00:00:00+00:00</time>
        <ele>3554.0</ele>
      </trkpt>
      <trkpt lat="45.949879" lon="7.280035">
        <time>1970-01-01T00:00:00+00:00</time>
        <ele>3335.0</ele>
      </trkpt>
      <trkpt lat="45.971643" lon="7.31161">
        <time>1970-01-01T00:00:00+00:00</time>
        <ele>2875.0</ele>
      </trkpt>
      <trkpt lat="45.998731" lon="7.299645">
        <time>1970-01-01T00:00:00+00:00</time>
        <ele>2629.0</ele>
      </trkpt>
    </trkseg>
  </trk>
</gpx>
